OpenBCM V1.13 (Linux)

Packet Radio Mailbox

DB0FHN

[JN59NK Nuernberg]

 Login: GUEST





  
CX2SA  > KEPS     18.03.05 07:37l 277 Lines 7261 Bytes #999 (0) @ AMSAT
BID : ORB05076.D
Read: OE7HNT GUEST
Subj: Orbital Elements  05076.MICROS
Path: DB0FHN<DB0RGB<DB0MRW<DB0WUE<DK0WUE<7M3TJZ<EA5AKC<CX2SA
Sent: 050318/0533Z @:CX2SA.LAV.URY.SA #:24363 [Minas] FBB7.00e $:ORB05076.D
From: CX2SA@CX2SA.LAV.URY.SA
To  : KEPS@AMSAT


HR AMSAT ORBITAL ELEMENTS FOR THE MICROSATS
FROM WA5QGD FORT WORTH,TX March 17, 2005
SEND SUBSCRIBE/UNSUBSCRIBE TO majordomo@amsat.org ONLY
BID: ORB05076.D
TO ALL RADIO AMATEURS BT

Satellite: UO-14
Catalog number: 20437
Epoch time:      05075.92332894
Element set:    0732
Inclination:      098.1979 deg
RA of node:       090.7932 deg
Eccentricity:    0.0011690
Arg of perigee:   106.6385 deg
Mean anomaly:     253.6094 deg
Mean motion:   14.31401778 rev/day
Decay rate:       -5.2e-07 rev/day^2
Epoch rev:           79083
Checksum:              320

Satellite: AO-16
Catalog number: 20439
Epoch time:      05075.66527859
Element set:    0420
Inclination:      098.2163 deg
RA of node:       105.7754 deg
Eccentricity:    0.0011767
Arg of perigee:   115.4407 deg
Mean anomaly:     244.7983 deg
Mean motion:   14.31663993 rev/day
Decay rate:        2.6e-07 rev/day^2
Epoch rev:           79085
Checksum:              328

Satellite: WO-18
Catalog number: 20441
Epoch time:      05075.74460312
Element set:    0614
Inclination:      098.2282 deg
RA of node:       110.1420 deg
Eccentricity:    0.0012586
Arg of perigee:   115.0078 deg
Mean anomaly:     245.2416 deg
Mean motion:   14.31738420 rev/day
Decay rate:        4.0e-07 rev/day^2
Epoch rev:           79092
Checksum:              258

Satellite: LO-19
Catalog number: 20442
Epoch time:      05075.70381896
Element set:    0348
Inclination:      098.2367 deg
RA of node:       114.4669 deg
Eccentricity:    0.0012730
Arg of perigee:   114.4159 deg
Mean anomaly:     245.8360 deg
Mean motion:   14.31910327 rev/day
Decay rate:        4.9e-07 rev/day^2
Epoch rev:           79098
Checksum:              316

Satellite: UO-22
Catalog number: 21575
Epoch time:      05075.96349261
Element set:    0355
Inclination:      098.2340 deg
RA of node:       044.8230 deg
Eccentricity:    0.0007562
Arg of perigee:   015.9479 deg
Mean anomaly:     344.1954 deg
Mean motion:   14.39469338 rev/day
Decay rate:       1.59e-06 rev/day^2
Epoch rev:           71723
Checksum:              321

Satellite: KO-23
Catalog number: 22077
Epoch time:      05075.39497293
Element set:    0417
Inclination:      066.0897 deg
RA of node:       340.7834 deg
Eccentricity:    0.0015428
Arg of perigee:   279.1260 deg
Mean anomaly:     080.8014 deg
Mean motion:   12.86428567 rev/day
Decay rate:       -3.7e-07 rev/day^2
Epoch rev:           59165
Checksum:              328

Satellite: AO-27
Catalog number: 22825
Epoch time:      05075.91863534
Element set:    0088
Inclination:      098.2500 deg
RA of node:       076.3104 deg
Eccentricity:    0.0008750
Arg of perigee:   169.6127 deg
Mean anomaly:     190.5254 deg
Mean motion:   14.29118818 rev/day
Decay rate:        8.9e-07 rev/day^2
Epoch rev:           59804
Checksum:              320

Satellite: IO-26
Catalog number: 22826
Epoch time:      05075.54573743
Element set:    0754
Inclination:      098.2449 deg
RA of node:       077.2460 deg
Eccentricity:    0.0008816
Arg of perigee:   169.8314 deg
Mean anomaly:     190.3041 deg
Mean motion:   14.29358077 rev/day
Decay rate:        3.1e-07 rev/day^2
Epoch rev:           59805
Checksum:              322

Satellite: KO-25
Catalog number: 22828
Epoch time:      05075.98325224
Element set:    0008
Inclination:      098.2397 deg
RA of node:       077.8753 deg
Eccentricity:    0.0010329
Arg of perigee:   146.6082 deg
Mean anomaly:     213.5748 deg
Mean motion:   14.29672484 rev/day
Decay rate:       -6.2e-07 rev/day^2
Epoch rev:           56634
Checksum:              327

Satellite: TO-31
Catalog number: 25396
Epoch time:      05075.70938333
Element set:    0202
Inclination:      098.5395 deg
RA of node:       145.7010 deg
Eccentricity:    0.0003651
Arg of perigee:   094.8027 deg
Mean anomaly:     265.3587 deg
Mean motion:   14.23660909 rev/day
Decay rate:       -4.3e-07 rev/day^2
Epoch rev:           34725
Checksum:              304

Satellite: GO-32
Catalog number: 25397
Epoch time:      05075.40385432
Element set:    0697
Inclination:      098.5289 deg
RA of node:       143.0982 deg
Eccentricity:    0.0002319
Arg of perigee:   110.9020 deg
Mean anomaly:     249.2404 deg
Mean motion:   14.23071664 rev/day
Decay rate:       -7.7e-07 rev/day^2
Epoch rev:           34713
Checksum:              298

Satellite: UO-36
Catalog number: 25693
Epoch time:      05075.46909564
Element set:    0002
Inclination:      064.5596 deg
RA of node:       208.4441 deg
Eccentricity:    0.0034166
Arg of perigee:   223.5556 deg
Mean anomaly:     136.2845 deg
Mean motion:   14.78478280 rev/day
Decay rate:       1.84e-06 rev/day^2
Epoch rev:           31811
Checksum:              317

Satellite: SO-41
Catalog number: 26545
Epoch time:      05075.67863822
Element set:    0026
Inclination:      064.5570 deg
RA of node:       222.7521 deg
Eccentricity:    0.0040333
Arg of perigee:   321.1028 deg
Mean anomaly:     038.7171 deg
Mean motion:   14.80040955 rev/day
Decay rate:       3.32e-06 rev/day^2
Epoch rev:           24123
Checksum:              265

Satellite: MO-46
Catalog number: 26548
Epoch time:      05075.85286326
Element set:    0130
Inclination:      064.5571 deg
RA of node:       205.9539 deg
Eccentricity:    0.0038246
Arg of perigee:   311.3064 deg
Mean anomaly:     048.4740 deg
Mean motion:   14.82651204 rev/day
Decay rate:       5.64e-06 rev/day^2
Epoch rev:           24160
Checksum:              296

Satellite: SO-42
Catalog number: 26549
Epoch time:      05075.66614420
Element set:    0088
Inclination:      064.5550 deg
RA of node:       230.9102 deg
Eccentricity:    0.0041018
Arg of perigee:   327.2499 deg
Mean anomaly:     032.6064 deg
Mean motion:   14.78923019 rev/day
Decay rate:       2.03e-06 rev/day^2
Epoch rev:           24107
Checksum:              280

Satellite: NO-44
Catalog number: 26931
Epoch time:      05075.95671645
Element set:    0994
Inclination:      067.0514 deg
RA of node:       105.3326 deg
Eccentricity:    0.0007096
Arg of perigee:   261.4400 deg
Mean anomaly:     098.5954 deg
Mean motion:   14.29367837 rev/day
Decay rate:        2.0e-07 rev/day^2
Epoch rev:           18058
Checksum:              318

Satellite: AO-49
Catalog number: 27605
Epoch time:      05075.93888503
Element set:    0687
Inclination:      064.5592 deg
RA of node:       055.8024 deg
Eccentricity:    0.0085547
Arg of perigee:   258.2494 deg
Mean anomaly:     100.9019 deg
Mean motion:   14.72055477 rev/day
Decay rate:       1.71e-06 rev/day^2
Epoch rev:           12027
Checksum:              326

Satellite: SO-50
Catalog number: 27607
Epoch time:      05075.98204822
Element set:    0668
Inclination:      064.5588 deg
RA of node:       060.8063 deg
Eccentricity:    0.0086308
Arg of perigee:   257.1128 deg
Mean anomaly:     102.0339 deg
Mean motion:   14.70910858 rev/day
Decay rate:       2.32e-06 rev/day^2
Epoch rev:           12017
Checksum:              298

Satellite: AO-51
Catalog number: 28375
Epoch time:      05075.74224390
Element set:    0208
Inclination:      098.2228 deg
RA of node:       141.9219 deg
Eccentricity:    0.0084661
Arg of perigee:   149.7210 deg
Mean anomaly:     210.8919 deg
Mean motion:   14.40442050 rev/day
Decay rate:       1.70e-06 rev/day^2
Epoch rev:           03731
Checksum:              282



Read previous mail | Read next mail


 14.07.2026 09:00:42lGo back Go up